Location: Dumler Oil Field
(38.5875°N, 100.1629°W)
Time: 14:40:45
(UTC+00:00)

Daily predictions for brighter satellites

Satellite Brightness Start Highest point End
(mag) Time Altitude Azimuth Time Altitude Azimuth Time Altitude Azimuth
Cosmos 1151 Rocket 3.5 12:02:10 10° S 12:06:27 65° E 12:10:44 10° NNE
CZ-4B R/B 1.1 12:04:09 10° SSE 12:07:18 85° WSW 12:10:26 10° NNW
SJ-12 4.0 12:05:16 10° N 12:09:12 50° WNW 12:13:07 10° SSW
CENTAUR R/B 3.7 12:04:59 10° NNW 12:13:15 67° NE 12:22:07 10° SE
Cosmos 1933 3.3 12:11:25 10° SSW 12:15:21 57° W 12:19:20 10° N
NOSS 3-4 (A) 3.6 12:10:55 10° SSW 12:16:41 71° ESE 12:22:46 10° NE
Cosmos 2333 4.3 12:10:55 10° NNW 12:16:44 89° WSW 12:22:31 10° SSE
Cosmos 2251 Rocket 4.0 12:11:46 10° SW 12:16:46 41° WNW 12:21:51 10° N
NOSS 3-4 (C) 3.7 12:11:01 10° SSW 12:16:47 70° ESE 12:22:52 10° NE
YAOGAN 6 2.8 12:16:05 10° NNE 12:19:35 72° E 12:23:03 10° S
Meteor 1-26 Rocket 4.3 12:15:40 10° S 12:21:15 87° E 12:27:04 10° N
Cosmos 2360 Rocket 2.6 12:18:11 10° NW 12:23:29 41° WSW 12:28:44 10° S
Cosmos 1689 Rocket 3.3 12:23:16 10° SSE 12:25:57 42° ENE 12:28:40 10° N
COSMOS 2487 3.5 12:24:18 10° WSW 12:27:06 24° WNW 12:29:56 10° N
CZ-4B R/B 3.3 12:25:18 10° N 12:29:41 54° WNW 12:34:04 10° SSW
Cosmos 1328 Rocket 3.4 12:26:29 10° S 12:30:47 80° W 12:35:06 10° N
ATLAS 2AS CENTAUR R/B 3.6 12:23:48 10° SSW 12:31:33 65° ESE 12:39:20 10° NE
Cosmos 2333 Rocket 2.2 12:26:58 10° NNW 12:32:45 83° WSW 12:38:30 10° SSE
COSMO-SKYMED 1 3.1 12:28:43 10° SSW 12:32:45 38° W 12:36:50 10° NNW
SeaSat 1 3.3 12:32:33 10° SSW 12:36:46 28° WSW 12:41:00 10° NW
CZ-2C R/B 3.7 12:31:32 10° SSE 12:36:57 54° ENE 12:42:25 10° N
Cosmos 1470 Rocket 4.1 12:34:03 10° N 12:38:23 64° E 12:42:39 10° SSE
Cosmos 2227 Rocket 4.4 12:36:21 10° SSE 12:41:17 32° ESE 12:46:14 10° NE
